Tracking 22458 objects as of 4-Mar-2021
HD Live streaming from Space Station
objects crossing your sky now

SL-6 DEB

Track SL-6 DEB now!
10-day predictions


NORAD ID: 18598
Int'l Code: 1981-088N
Perigee: 283.3 km
Apogee: 13,210.6 km
Inclination: 62.8 °
Period: 249.2 minutes
Semi major axis: 13117 km
RCS: 0.1262 m2 (medium)
Launch date: September 11, 1981
Source: Commonwealth of Independent States (former USSR) (CIS)
Launch site: PLESETSK MISSILE AND SPACE COMPLEX (PKMTR)

Note: This is SATELLITE DEBRIS
aabbcc
Your satellite tracking list
Your tracking list is empty




NASA's NSSDC Master Catalog

Two Line Element Set (TLE):
1 18598U 81088N   21063.12917750  .00006449  00000-0  63728-3 0  9992
2 18598  62.8318 245.8487 4927309 251.7674  50.2014  5.77834092805320
Source of the keplerian elements: AFSPC